| time (UTC) | temp C | wind direction | speed KPH | gust KPH | rain 1hr cm | rain 24hr cm | rain mn cm | humidity % | barometer mb |
| 20260507200045 | 8 | 350 | 8.0 | 0.0 | 0.00 | 0.00 | 0.00 | 65 | 1018.0 |
| 20260507194842 | 8 | 350 | 8.0 | 0.0 | 0.00 | 0.00 | 0.00 | 65 | 1018.0 |
| 20260507194546 | 8 | 350 | 8.0 | 0.0 | 0.00 | 0.00 | 0.00 | 65 | 1018.0 |
| 20260507193044 | 8 | 350 | 9.7 | 0.0 | 0.00 | 0.00 | 0.00 | 65 | 1017.0 |
| 20260507192840 | 8 | 350 | 9.7 | 0.0 | 0.00 | 0.00 | 0.00 | 65 | 1017.0 |
| 20260507191547 | 8 | 350 | 9.7 | 0.0 | 0.00 | 0.00 | 0.00 | 65 | 1017.0 |
| 20260507190839 | 10 | 360 | 11.3 | 0.0 | 0.00 | 0.00 | 0.00 | 61 | 1017.0 |
| 20260507190044 | 10 | 360 | 11.3 | 0.0 | 0.00 | 0.00 | 0.00 | 61 | 1017.0 |
| 20260507184842 | 10 | 360 | 11.3 | 0.0 | 0.00 | 0.00 | 0.00 | 61 | 1017.0 |
| 20260507184545 | 10 | 360 | 11.3 | 0.0 | 0.00 | 0.00 | 0.00 | 61 | 1017.0 |
| 20260507183044 | 10 | 350 | 9.7 | 0.0 | 0.00 | 0.00 | 0.00 | 61 | 1017.0 |
| 20260507182841 | 10 | 350 | 9.7 | 0.0 | 0.00 | 0.00 | 0.00 | 61 | 1017.0 |
| 20260507181546 | 10 | 350 | 9.7 | 0.0 | 0.00 | 0.00 | 0.00 | 61 | 1017.0 |
| 20260507180839 | 10 | 10 | 9.7 | 0.0 | 0.00 | 0.00 | 0.00 | 57 | 1017.0 |
| 20260507180045 | 10 | 10 | 9.7 | 0.0 | 0.00 | 0.00 | 0.00 | 57 | 1017.0 |
| 20260507174843 | 10 | 10 | 9.7 | 0.0 | 0.00 | 0.00 | 0.00 | 57 | 1017.0 |
| 20260507174546 | 10 | 10 | 9.7 | 0.0 | 0.00 | 0.00 | 0.00 | 57 | 1017.0 |
| 20260507173045 | 10 | 10 | 11.3 | 0.0 | 0.00 | 0.00 | 0.00 | 57 | 1016.0 |
| 20260507172841 | 10 | 10 | 11.3 | 0.0 | 0.00 | 0.00 | 0.00 | 57 | 1016.0 |
| 20260507171547 | 10 | 10 | 11.3 | 0.0 | 0.00 | 0.00 | 0.00 | 57 | 1016.0 |
| 20260507170839 | 10 | 360 | 11.3 | 0.0 | 0.00 | 0.00 | 0.00 | 61 | 1016.0 |
| 20260507170044 | 10 | 360 | 11.3 | 0.0 | 0.00 | 0.00 | 0.00 | 61 | 1016.0 |
| 20260507164842 | 10 | 360 | 11.3 | 0.0 | 0.00 | 0.00 | 0.00 | 61 | 1016.0 |
| 20260507164546 | 10 | 360 | 11.3 | 0.0 | 0.00 | 0.00 | 0.00 | 61 | 1016.0 |
| 20260507163044 | 10 | 360 | 14.5 | 0.0 | 0.00 | 0.00 | 0.00 | 57 | 1016.0 |
| 20260507162840 | 10 | 360 | 14.5 | 0.0 | 0.00 | 0.00 | 0.00 | 57 | 1016.0 |
| 20260507161546 | 10 | 360 | 14.5 | 0.0 | 0.00 | 0.00 | 0.00 | 57 | 1016.0 |
| 20260507160839 | 11 | 360 | 12.9 | 0.0 | 0.00 | 0.00 | 0.00 | 57 | 1016.0 |
| 20260507160044 | 11 | 360 | 12.9 | 0.0 | 0.00 | 0.00 | 0.00 | 57 | 1016.0 |
| 20260507154842 | 11 | 360 | 12.9 | 0.0 | 0.00 | 0.00 | 0.00 | 57 | 1016.0 |
| 20260507154545 | 11 | 360 | 12.9 | 0.0 | 0.00 | 0.00 | 0.00 | 57 | 1016.0 |
| 20260507153044 | 11 | 360 | 14.5 | 0.0 | 0.00 | 0.00 | 0.00 | 57 | 1016.0 |
| 20260507152840 | 11 | 360 | 14.5 | 0.0 | 0.00 | 0.00 | 0.00 | 57 | 1016.0 |
| 20260507151547 | 11 | 360 | 14.5 | 0.0 | 0.00 | 0.00 | 0.00 | 57 | 1016.0 |
| 20260507150839 | 11 | 10 | 16.1 | 0.0 | 0.00 | 0.00 | 0.00 | 57 | 1016.0 |
| 20260507150044 | 11 | 10 | 16.1 | 0.0 | 0.00 | 0.00 | 0.00 | 57 | 1016.0 |
| 20260507144848 | 11 | 10 | 16.1 | 0.0 | 0.00 | 0.00 | 0.00 | 57 | 1016.0 |
| 20260507144545 | 11 | 10 | 16.1 | 0.0 | 0.00 | 0.00 | 0.00 | 57 | 1016.0 |
| 20260507143043 | 11 | 20 | 14.5 | 0.0 | 0.00 | 0.00 | 0.00 | 61 | 1016.0 |
| 20260507142846 | 11 | 20 | 14.5 | 0.0 | 0.00 | 0.00 | 0.00 | 61 | 1016.0 |
| 20260507141548 | 11 | 20 | 14.5 | 0.0 | 0.00 | 0.00 | 0.00 | 61 | 1016.0 |
| 20260507140844 | 11 | 360 | 12.9 | 0.0 | 0.00 | 0.00 | 0.00 | 61 | 1016.0 |
| 20260507140044 | 11 | 360 | 12.9 | 0.0 | 0.00 | 0.00 | 0.00 | 61 | 1016.0 |
| 20260507134842 | 11 | 360 | 12.9 | 0.0 | 0.00 | 0.00 | 0.00 | 61 | 1016.0 |
| 20260507134545 | 11 | 360 | 12.9 | 0.0 | 0.00 | 0.00 | 0.00 | 61 | 1016.0 |
| 20260507133044 | 11 | 10 | 19.3 | 0.0 | 0.00 | 0.00 | 0.00 | 57 | 1015.0 |
| 20260507132840 | 11 | 10 | 19.3 | 0.0 | 0.00 | 0.00 | 0.00 | 57 | 1015.0 |
| 20260507131546 | 11 | 10 | 19.3 | 0.0 | 0.00 | 0.00 | 0.00 | 57 | 1015.0 |
| 20260507130839 | 11 | 10 | 16.1 | 0.0 | 0.00 | 0.00 | 0.00 | 61 | 1015.0 |
| 20260507130044 | 11 | 10 | 16.1 | 0.0 | 0.00 | 0.00 | 0.00 | 61 | 1015.0 |
| 20260507124842 | 11 | 10 | 16.1 | 0.0 | 0.00 | 0.00 | 0.00 | 61 | 1015.0 |
| 20260507124545 | 11 | 10 | 16.1 | 0.0 | 0.00 | 0.00 | 0.00 | 61 | 1015.0 |
| 20260507123044 | 11 | 30 | 12.9 | 0.0 | 0.00 | 0.00 | 0.00 | 57 | 1015.0 |
| 20260507122840 | 11 | 30 | 12.9 | 0.0 | 0.00 | 0.00 | 0.00 | 57 | 1015.0 |
| 20260507121547 | 11 | 30 | 12.9 | 0.0 | 0.00 | 0.00 | 0.00 | 57 | 1015.0 |
| 20260507120838 | 11 | 10 | 16.1 | 0.0 | 0.00 | 0.00 | 0.00 | 57 | 1015.0 |
| 20260507120045 | 11 | 10 | 16.1 | 0.0 | 0.00 | 0.00 | 0.00 | 57 | 1015.0 |
| 20260507114841 | 11 | 10 | 16.1 | 0.0 | 0.00 | 0.00 | 0.00 | 57 | 1015.0 |
| 20260507114545 | 11 | 10 | 16.1 | 0.0 | 0.00 | 0.00 | 0.00 | 57 | 1015.0 |
| 20260507113043 | 11 | 60 | 16.1 | 0.0 | 0.00 | 0.00 | 0.00 | 61 | 1015.0 |
| 20260507112840 | 11 | 60 | 16.1 | 0.0 | 0.00 | 0.00 | 0.00 | 61 | 1015.0 |
| 20260507111546 | 11 | 60 | 16.1 | 0.0 | 0.00 | 0.00 | 0.00 | 61 | 1015.0 |
| 20260507110838 | 11 | 20 | 19.3 | 0.0 | 0.00 | 0.00 | 0.00 | 57 | 1014.0 |
| 20260507110043 | 11 | 20 | 19.3 | 0.0 | 0.00 | 0.00 | 0.00 | 57 | 1014.0 |
| 20260507104842 | 11 | 20 | 19.3 | 0.0 | 0.00 | 0.00 | 0.00 | 57 | 1014.0 |
| 20260507104545 | 11 | 20 | 19.3 | 0.0 | 0.00 | 0.00 | 0.00 | 57 | 1014.0 |
| 20260507103044 | 11 | 10 | 19.3 | 0.0 | 0.00 | 0.00 | 0.00 | 61 | 1014.0 |
| 20260507102840 | 11 | 10 | 19.3 | 0.0 | 0.00 | 0.00 | 0.00 | 61 | 1014.0 |
| 20260507101546 | 11 | 10 | 19.3 | 0.0 | 0.00 | 0.00 | 0.00 | 61 | 1014.0 |
| 20260507100838 | 10 | 10 | 19.3 | 0.0 | 0.00 | 0.00 | 0.00 | 61 | 1014.0 |
| 20260507100044 | 10 | 10 | 19.3 | 0.0 | 0.00 | 0.00 | 0.00 | 61 | 1014.0 |
| 20260507094842 | 10 | 10 | 19.3 | 0.0 | 0.00 | 0.00 | 0.00 | 61 | 1014.0 |
| 20260507094550 | 10 | 10 | 19.3 | 0.0 | 0.00 | 0.00 | 0.00 | 61 | 1014.0 |
| 20260507093043 | 10 | 20 | 19.3 | 0.0 | 0.00 | 0.00 | 0.00 | 66 | 1014.0 |
| 20260507092840 | 10 | 20 | 19.3 | 0.0 | 0.00 | 0.00 | 0.00 | 66 | 1014.0 |
| 20260507091546 | 10 | 20 | 19.3 | 0.0 | 0.00 | 0.00 | 0.00 | 66 | 1014.0 |
| 20260507090839 | 10 | 10 | 16.1 | 0.0 | 0.00 | 0.00 | 0.00 | 70 | 1014.0 |
| 20260507090044 | 10 | 10 | 16.1 | 0.0 | 0.00 | 0.00 | 0.00 | 70 | 1014.0 |
| 20260507084842 | 10 | 10 | 16.1 | 0.0 | 0.00 | 0.00 | 0.00 | 70 | 1014.0 |
| 20260507084545 | 10 | 10 | 16.1 | 0.0 | 0.00 | 0.00 | 0.00 | 70 | 1014.0 |
| 20260507083044 | 8 | 30 | 14.5 | 0.0 | 0.00 | 0.00 | 0.00 | 75 | 1014.0 |
| 20260507082840 | 8 | 30 | 14.5 | 0.0 | 0.00 | 0.00 | 0.00 | 75 | 1014.0 |
| 20260507081546 | 8 | 30 | 14.5 | 0.0 | 0.00 | 0.00 | 0.00 | 75 | 1014.0 |
| 20260507080839 | 8 | 30 | 14.5 | 0.0 | 0.00 | 0.00 | 0.00 | 75 | 1013.0 |
| 20260507080044 | 8 | 30 | 14.5 | 0.0 | 0.00 | 0.00 | 0.00 | 75 | 1013.0 |
| 20260507074843 | 8 | 30 | 14.5 | 0.0 | 0.00 | 0.00 | 0.00 | 75 | 1013.0 |
| 20260507074545 | 8 | 30 | 14.5 | 0.0 | 0.00 | 0.00 | 0.00 | 75 | 1013.0 |
| 20260507073043 | 7 | 10 | 16.1 | 0.0 | 0.00 | 0.00 | 0.00 | 81 | 1013.0 |
| 20260507072841 | 7 | 10 | 16.1 | 0.0 | 0.00 | 0.00 | 0.00 | 81 | 1013.0 |
| 20260507071546 | 7 | 10 | 16.1 | 0.0 | 0.00 | 0.00 | 0.00 | 81 | 1013.0 |
| 20260507070839 | 7 | 20 | 11.3 | 0.0 | 0.00 | 0.00 | 0.00 | 81 | 1013.0 |
| 20260507070044 | 7 | 20 | 11.3 | 0.0 | 0.00 | 0.00 | 0.00 | 81 | 1013.0 |
| 20260507064843 | 7 | 20 | 11.3 | 0.0 | 0.00 | 0.00 | 0.00 | 81 | 1013.0 |
| 20260507064544 | 7 | 20 | 11.3 | 0.0 | 0.00 | 0.00 | 0.00 | 81 | 1013.0 |
| 20260507063043 | 7 | 10 | 12.9 | 0.0 | 0.00 | 0.00 | 0.00 | 81 | 1013.0 |
| 20260507062841 | 7 | 10 | 12.9 | 0.0 | 0.00 | 0.00 | 0.00 | 81 | 1013.0 |
| 20260507061545 | 7 | 10 | 12.9 | 0.0 | 0.00 | 0.00 | 0.00 | 81 | 1013.0 |
| 20260507060839 | 7 | 10 | 9.7 | 0.0 | 0.00 | 0.00 | 0.00 | 81 | 1012.0 |
| 20260507060044 | 7 | 10 | 9.7 | 0.0 | 0.00 | 0.00 | 0.00 | 81 | 1012.0 |
| 20260507054842 | 7 | 10 | 9.7 | 0.0 | 0.00 | 0.00 | 0.00 | 81 | 1012.0 |
| 20260507054545 | 7 | 10 | 9.7 | 0.0 | 0.00 | 0.00 | 0.00 | 81 | 1012.0 |
| 20260507053043 | 7 | 10 | 11.3 | 0.0 | 0.00 | 0.00 | 0.00 | 81 | 1012.0 |
| 20260507052841 | 7 | 10 | 11.3 | 0.0 | 0.00 | 0.00 | 0.00 | 81 | 1012.0 |
| 20260507051545 | 7 | 10 | 11.3 | 0.0 | 0.00 | 0.00 | 0.00 | 81 | 1012.0 |
| 20260507050839 | 7 | 10 | 11.3 | 0.0 | 0.00 | 0.00 | 0.00 | 86 | 1012.0 |
| 20260507050044 | 7 | 10 | 11.3 | 0.0 | 0.00 | 0.00 | 0.00 | 86 | 1012.0 |
| 20260507044842 | 7 | 10 | 11.3 | 0.0 | 0.00 | 0.00 | 0.00 | 86 | 1012.0 |
| 20260507044544 | 7 | 10 | 11.3 | 0.0 | 0.00 | 0.00 | 0.00 | 86 | 1012.0 |
| 20260507043043 | 7 | 20 | 9.7 | 0.0 | 0.00 | 0.00 | 0.00 | 87 | 1011.0 |
| 20260507042841 | 7 | 20 | 9.7 | 0.0 | 0.00 | 0.00 | 0.00 | 87 | 1011.0 |
| 20260507041546 | 7 | 20 | 9.7 | 0.0 | 0.00 | 0.00 | 0.00 | 87 | 1011.0 |
| 20260507040839 | 7 | 30 | 11.3 | 0.0 | 0.00 | 0.00 | 0.00 | 87 | 1011.0 |
| 20260507040045 | 7 | 30 | 11.3 | 0.0 | 0.00 | 0.00 | 0.00 | 87 | 1011.0 |
| 20260507034842 | 7 | 30 | 11.3 | 0.0 | 0.00 | 0.00 | 0.00 | 87 | 1011.0 |
| 20260507034544 | 7 | 30 | 11.3 | 0.0 | 0.00 | 0.00 | 0.00 | 87 | 1011.0 |
| 20260507033044 | 7 | 20 | 11.3 | 0.0 | 0.00 | 0.00 | 0.00 | 87 | 1011.0 |
| 20260507032841 | 7 | 20 | 11.3 | 0.0 | 0.00 | 0.00 | 0.00 | 87 | 1011.0 |
| 20260507031547 | 7 | 20 | 11.3 | 0.0 | 0.00 | 0.00 | 0.00 | 87 | 1011.0 |
| 20260507030839 | 7 | 30 | 11.3 | 0.0 | 0.00 | 0.00 | 0.00 | 81 | 1011.0 |
| 20260507030043 | 7 | 30 | 11.3 | 0.0 | 0.00 | 0.00 | 0.00 | 81 | 1011.0 |
| 20260507024842 | 7 | 30 | 11.3 | 0.0 | 0.00 | 0.00 | 0.00 | 81 | 1011.0 |
| 20260507024544 | 7 | 30 | 11.3 | 0.0 | 0.00 | 0.00 | 0.00 | 81 | 1011.0 |
| 20260507023043 | 7 | 30 | 11.3 | 0.0 | 0.00 | 0.00 | 0.00 | 87 | 1011.0 |
| 20260507022840 | 7 | 30 | 11.3 | 0.0 | 0.00 | 0.00 | 0.00 | 87 | 1011.0 |
| 20260507021546 | 7 | 30 | 11.3 | 0.0 | 0.00 | 0.00 | 0.00 | 87 | 1011.0 |
| 20260507020839 | 7 | 40 | 9.7 | 0.0 | 0.00 | 0.00 | 0.00 | 87 | 1011.0 |
| 20260507020044 | 7 | 40 | 9.7 | 0.0 | 0.00 | 0.00 | 0.00 | 87 | 1011.0 |
| 20260507014842 | 7 | 40 | 9.7 | 0.0 | 0.00 | 0.00 | 0.00 | 87 | 1011.0 |
| 20260507014545 | 7 | 40 | 9.7 | 0.0 | 0.00 | 0.00 | 0.00 | 87 | 1011.0 |
| 20260507013043 | 7 | 30 | 11.3 | 0.0 | 0.00 | 0.00 | 0.00 | 87 | 1010.0 |
| 20260507012840 | 7 | 30 | 11.3 | 0.0 | 0.00 | 0.00 | 0.00 | 87 | 1010.0 |
| 20260507011545 | 7 | 30 | 11.3 | 0.0 | 0.00 | 0.00 | 0.00 | 87 | 1010.0 |
| 20260507010839 | 7 | 30 | 11.3 | 0.0 | 0.00 | 0.00 | 0.00 | 87 | 1010.0 |
| 20260507010044 | 7 | 30 | 11.3 | 0.0 | 0.00 | 0.00 | 0.00 | 87 | 1010.0 |
| 20260507004841 | 7 | 30 | 11.3 | 0.0 | 0.00 | 0.00 | 0.00 | 87 | 1010.0 |
| 20260507004544 | 7 | 30 | 11.3 | 0.0 | 0.00 | 0.00 | 0.00 | 87 | 1010.0 |
| 20260507003043 | 7 | 10 | 9.7 | 0.0 | 0.00 | 0.00 | 0.00 | 93 | 1010.0 |
| 20260507002839 | 7 | 10 | 9.7 | 0.0 | 0.00 | 0.00 | 0.00 | 93 | 1010.0 |
| 20260507001546 | 7 | 10 | 9.7 | 0.0 | 0.00 | 0.00 | 0.00 | 93 | 1010.0 |
| 20260507000838 | 7 | 40 | 8.0 | 0.0 | 0.00 | 0.00 | 0.00 | 87 | 1010.0 |
| 20260507000043 | 7 | 40 | 8.0 | 0.0 | 0.00 | 0.00 | 0.00 | 87 | 1010.0 |
| 20260506234842 | 7 | 40 | 8.0 | 0.0 | 0.00 | 0.00 | 0.00 | 87 | 1010.0 |
| 20260506234550 | 7 | 40 | 8.0 | 0.0 | 0.00 | 0.00 | 0.00 | 87 | 1010.0 |
| 20260506233043 | 7 | 20 | 11.3 | 0.0 | 0.00 | 0.00 | 0.00 | 87 | 1010.0 |
| 20260506232840 | 7 | 20 | 11.3 | 0.0 | 0.00 | 0.00 | 0.00 | 87 | 1010.0 |
| 20260506231546 | 7 | 20 | 11.3 | 0.0 | 0.00 | 0.00 | 0.00 | 87 | 1010.0 |
| 20260506230839 | 7 | 20 | 9.7 | 0.0 | 0.00 | 0.00 | 0.00 | 87 | 1010.0 |
| 20260506230043 | 7 | 20 | 9.7 | 0.0 | 0.00 | 0.00 | 0.00 | 87 | 1010.0 |
| 20260506224843 | 7 | 20 | 9.7 | 0.0 | 0.00 | 0.00 | 0.00 | 87 | 1010.0 |
| 20260506224544 | 7 | 20 | 9.7 | 0.0 | 0.00 | 0.00 | 0.00 | 87 | 1010.0 |
| 20260506223042 | 7 | 20 | 11.3 | 0.0 | 0.00 | 0.00 | 0.00 | 87 | 1010.0 |
| 20260506222841 | 7 | 20 | 11.3 | 0.0 | 0.00 | 0.00 | 0.00 | 87 | 1010.0 |
| 20260506221556 | 7 | 20 | 11.3 | 0.0 | 0.00 | 0.00 | 0.00 | 87 | 1010.0 |
| 20260506220840 | 7 | 20 | 12.9 | 0.0 | 0.00 | 0.00 | 0.00 | 87 | 1010.0 |
| 20260506220043 | 7 | 20 | 12.9 | 0.0 | 0.00 | 0.00 | 0.00 | 87 | 1010.0 |
| 20260506214848 | 7 | 20 | 12.9 | 0.0 | 0.00 | 0.00 | 0.00 | 87 | 1010.0 |
| 20260506214544 | 7 | 20 | 12.9 | 0.0 | 0.00 | 0.00 | 0.00 | 87 | 1010.0 |
| 20260506213042 | 7 | 360 | 11.3 | 0.0 | 0.00 | 0.00 | 0.00 | 87 | 1010.0 |
| 20260506212846 | 7 | 360 | 11.3 | 0.0 | 0.00 | 0.00 | 0.00 | 87 | 1010.0 |
| 20260506211545 | 7 | 360 | 11.3 | 0.0 | 0.00 | 0.00 | 0.00 | 87 | 1010.0 |
| 20260506210845 | 7 | 20 | 9.7 | 0.0 | 0.00 | 0.00 | 0.00 | 87 | 1009.0 |
| 20260506210044 | 7 | 20 | 9.7 | 0.0 | 0.00 | 0.00 | 0.00 | 87 | 1009.0 |
| 20260506204840 | 7 | 20 | 9.7 | 0.0 | 0.00 | 0.00 | 0.00 | 87 | 1009.0 |
| 20260506204544 | 7 | 20 | 9.7 | 0.0 | 0.00 | 0.00 | 0.00 | 87 | 1009.0 |
| 20260506203043 | 7 | 360 | 11.3 | 0.0 | 0.00 | 0.00 | 0.00 | 93 | 1009.0 |
| 20260506202839 | 7 | 360 | 11.3 | 0.0 | 0.00 | 0.00 | 0.00 | 93 | 1009.0 |
| 20260506201545 | 7 | 360 | 11.3 | 0.0 | 0.00 | 0.00 | 0.00 | 93 | 1009.0 |
| 20260506200837 | 7 | 360 | 11.3 | 0.0 | 0.00 | 0.00 | 0.00 | 87 | 1009.0 |